Hourly Data Report for October 01, 2014

All times are specified in Local Standard Time (LST). Add 1 hour to adjust for Daylight Saving Time where and when it is observed.

Metadata including Station Name, Province, Latitude, Longitude, Elevation, Climate ID, WMO ID, TC ID
GRANBY
QUEBEC
Latitude: 45°22'22.000" N Longitude: 72°46'26.000" W Elevation: 86.00 m
Climate ID: 7022802 WMO ID: TC ID: MGB
Hourly Data Report for September 30, 2014
Temp Definition
°C

Dew Point Temp Definition
°C

Rel Hum Definition
%

Wind Dir Definition
10's deg
Wind Spd Definition
km/h

Visibility Definition
km

Stn Press Definition
kPa

Hmdx Definition

Wind Chill Definition

Weather Definition

00:00 7.3 6.1 92 2 7 100.41 LegendNANA
01:00 7.6 6.0 90 3 8 100.43 LegendNANA
02:00 7.9 6.2 89 2 3 100.41 LegendNANA
03:00 8.2 6.4 89 2 3 100.42 LegendNANA
04:00 8.3 6.6 89 2 4 100.44 LegendNANA
05:00 8.3 6.8 90 2 3 100.46 LegendNANA
06:00 8.3 6.9 91 2 3 100.49 LegendNANA
07:00 9.7 7.7 87 3 3 100.54 LegendNANA
08:00
09:00 14.5 10.6 78 1 4 100.52 LegendNANA
10:00 16.2 11.3 73 36 4 100.51 LegendNANA
11:00 18.0 12.9 73 36 6 100.47 LegendNANA
12:00 20.0 13.3 65 35 5 100.45 LegendNANA
13:00 20.8 13.6 63 36 5 100.40 LegendNANA
14:00 20.9 14.0 65 33 7 100.39 LegendNANA
15:00 21.5 14.5 64 35 6 100.40 25 LegendNANA
16:00 18.1 11.9 67 1 8 100.44 LegendNANA
17:00 16.1 11.7 75 1 7 100.51 LegendNANA
18:00 14.4 11.1 80 2 7 100.56 LegendNANA
19:00 12.7 10.4 86 1 5 100.64 LegendNANA
20:00 11.3 9.6 89 2 4 100.67 LegendNANA
21:00 10.9 9.4 91 3 8 100.70 LegendNANA
22:00 10.1 9.0 93 2 7 100.72 LegendNANA
23:00 9.4 8.4 94 2 6 100.75 LegendNANA

Notes on Data Quality.

Legend
  • E = Estimated
  • M = Missing
  • NA = Not Available
  • ‡ = Partner data that is not subject to review by the National Climate Archives